Cedar City, UT

10:22 AM MDT on September 25, 2016 (GMT -0600)
Cedar City Regional

Weather History for KCDC - December, 2012

Change the Weather History Date:

Thursday, December 27, 2012

  Actual Average Record
Temperature  
Mean Temperature 26 °F 28 °F  
Max Temperature 32 °F 41 °F 66 °F (1980)
Min Temperature 20 °F 16 °F -12 °F (1990)
Degree Days  
Heating Degree Days 39 37  
Month to date heating degree days 895 974  
Since 1 July heating degree days 2031 2416  
Cooling Degree Days 0 0  
Month to date cooling degree days 0 0  
Year to date cooling degree days 715 588  
Moisture  
Dew Point 20 °F    
Average Humidity 79    
Maximum Humidity 88    
Minimum Humidity 69    
Precipitation  
Precipitation T in 0.03 in 0.62 in (2006)
Month to date precipitation 1.00 0.73  
Year to date precipitation 12.45 11.20  
Sea Level Pressure  
Sea Level Pressure 29.89 in    
Wind  
Wind Speed 5 mph (North)    
Max Wind Speed 15 mph    
Max Gust Speed 18 mph    
Visibility 8 miles    
Events Snow    
T = Trace of Precipitation, MM = Missing Value Source: NWS Daily Summary

Daily Weather History Graph

Daily Weather History Graph

Search for Another Location

Airport or City:

Trip Planner

Search our weather history database for the weather conditions in past years. The results will help you decide how hot, cold, wet, or windy it might be!

Date:

Astronomy

Dec. 27, 2012 Rise Set
Actual Time 7:46 AM MST 5:21 PM MST
Civil Twilight 7:17 AM MST 5:50 PM MST
Nautical Twilight 6:44 AM MST 6:23 PM MST
Astronomical Twilight 6:12 AM MST 6:55 PM MST
Moon 5:07 PM MST (12/27) 7:01 AM MST (12/27)
Length of Visible Light 10h 33m
Length of Day
9h 34m
Full, 100% of the Moon is Illuminated
Dec 27
Full
Dec 28
Full
Jan 4
Last Quarter
Jan 11
New
Jan 18
First Quarter

Hourly Weather History & Observations

Time (MST) Temp. Windchill Dew Point Humidity Pressure Visibility Wind Dir Wind Speed Gust Speed Precip Events Conditions
12:12 AM 26.6 °F 18.2 °F 21.2 °F 80% 29.78 in 10.0 mi SSW 8.1 mph - N/A   Mostly Cloudy
12:33 AM 24.8 °F 14.6 °F 19.4 °F 80% 29.77 in 10.0 mi South 10.4 mph - N/A   Scattered Clouds
12:53 AM 23.0 °F 17.0 °F 19.0 °F 85% 29.83 in 10.0 mi SSW 4.6 mph - N/A   Partly Cloudy
1:43 AM 21.2 °F 13.6 °F 17.6 °F 86% 29.78 in 10.0 mi SSW 5.8 mph - N/A   Mostly Cloudy
1:53 AM 24.1 °F 15.2 °F 19.9 °F 84% 29.83 in 10.0 mi SW 8.1 mph - N/A   Overcast
2:53 AM 26.1 °F 17.6 °F 21.9 °F 84% 29.83 in 10.0 mi SSW 8.1 mph - N/A   Overcast
3:53 AM 26.1 °F 18.4 °F 21.9 °F 84% 29.82 in 10.0 mi SW 6.9 mph - N/A   Overcast
4:53 AM 24.1 °F 17.0 °F 21.0 °F 88% 29.81 in 10.0 mi SSW 5.8 mph - N/A   Overcast
5:53 AM 21.0 °F 13.4 °F 18.0 °F 88% 29.83 in 10.0 mi South 5.8 mph - N/A   Mostly Cloudy
6:53 AM 21.9 °F 15.7 °F 18.0 °F 85% 29.84 in 10.0 mi SSW 4.6 mph - N/A   Overcast
7:53 AM 24.1 °F - 19.0 °F 81% 29.83 in 10.0 mi Calm Calm - N/A   Overcast
8:53 AM 23.0 °F - 19.0 °F 85% 29.85 in 10.0 mi Calm Calm - N/A   Partly Cloudy
9:53 AM 28.0 °F - 19.9 °F 72% 29.86 in 10.0 mi Calm Calm - N/A   Overcast
10:53 AM 27.0 °F 21.6 °F 19.9 °F 75% 29.89 in 10.0 mi North 4.6 mph - N/A   Overcast
11:53 AM 28.9 °F 25.2 °F 19.9 °F 69% 29.88 in 10.0 mi NNW 3.5 mph - N/A   Overcast
12:06 PM 28.4 °F 24.6 °F 21.2 °F 74% 29.83 in 1.8 mi North 3.5 mph - 0.00 in Snow Light Snow
12:16 PM 28.4 °F 24.6 °F 21.2 °F 74% 29.83 in 1.5 mi Variable 3.5 mph - 0.00 in Snow Light Snow
12:25 PM 28.4 °F 24.6 °F 21.2 °F 74% 29.83 in 3.0 mi NE 3.5 mph - 0.00 in Snow Light Snow
12:47 PM 30.2 °F 25.4 °F 21.2 °F 69% 29.83 in 1.8 mi North 4.6 mph - 0.00 in Snow Light Snow
12:53 PM 28.9 °F - 21.9 °F 75% 29.89 in 2.5 mi Calm Calm - 0.00 in Snow Light Snow
12:56 PM 28.4 °F - 21.2 °F 74% 29.83 in 5.0 mi Calm Calm - 0.00 in Snow Light Snow
1:31 PM 30.2 °F 25.4 °F 21.2 °F 69% 29.83 in 10.0 mi NNE 4.6 mph - 0.00 in   Overcast
1:53 PM 30.9 °F 23.5 °F 21.9 °F 69% 29.87 in 10.0 mi North 8.1 mph - 0.00 in   Overcast
2:07 PM 30.2 °F 22.6 °F 21.2 °F 69% 29.84 in 10.0 mi NNW 8.1 mph - N/A   Overcast
2:35 PM 30.2 °F 23.4 °F 23.0 °F 75% 29.84 in 2.5 mi NNW 6.9 mph - 0.00 in Snow Light Snow
2:42 PM 30.2 °F 23.4 °F 21.2 °F 69% 29.84 in 5.0 mi North 6.9 mph - 0.00 in Snow Light Snow
2:53 PM 28.9 °F 19.8 °F 19.9 °F 69% 29.89 in 4.0 mi NNE 10.4 mph - 0.00 in Snow Light Snow
3:53 PM 28.0 °F 19.3 °F 19.9 °F 72% 29.92 in 4.0 mi North 9.2 mph - 0.00 in Snow Light Snow
4:09 PM 26.6 °F 17.5 °F 21.2 °F 80% 29.88 in 2.5 mi NE 9.2 mph - 0.00 in Snow Light Snow
4:14 PM 26.6 °F 18.2 °F 21.2 °F 80% 29.88 in 3.0 mi NE 8.1 mph - 0.00 in Snow Light Snow
4:53 PM 26.1 °F 17.6 °F 19.0 °F 75% 29.96 in 8.0 mi NNE 8.1 mph - 0.00 in Snow Light Snow
5:12 PM 26.6 °F 18.2 °F 17.6 °F 69% 29.90 in 10.0 mi North 8.1 mph - 0.00 in   Overcast
5:19 PM 26.6 °F 18.2 °F 17.6 °F 69% 29.90 in 10.0 mi North 8.1 mph - 0.00 in   Overcast
5:53 PM 24.1 °F 13.1 °F 18.0 °F 77% 30.01 in 10.0 mi North 11.5 mph - 0.00 in   Overcast
6:53 PM 21.9 °F 13.4 °F 16.0 °F 78% 30.04 in 10.0 mi NNE 6.9 mph - N/A   Mostly Cloudy
7:53 PM 21.0 °F 13.4 °F 16.0 °F 81% 30.06 in 10.0 mi North 5.8 mph - N/A   Overcast
8:53 PM 21.0 °F 13.4 °F 16.0 °F 81% 30.07 in 10.0 mi NW 5.8 mph - N/A   Overcast
9:53 PM 21.0 °F 16.2 °F 17.1 °F 85% 30.06 in 10.0 mi NE 3.5 mph - N/A   Overcast
10:53 PM 21.0 °F - 17.1 °F 85% 30.09 in 10.0 mi Calm Calm - N/A   Overcast
11:53 PM 21.9 °F 17.2 °F 17.1 °F 82% 30.10 in 10.0 mi East 3.5 mph - N/A   Overcast